Find OneWeb SL0559

NORAD ID: 56060 Int'l Des: 2023-043 Owner: ONEWEBN Country: UK Constellation: oneweb operational
LEOCIRCULARPOLARONEWEB_TYPE

Live Position

Loading 3D Globe...

About OneWeb SL0559

Description loading...

Upcoming Passes

Passes for default location (London). Set your location on the main map for personalized predictions.

Altitude History

Loading altitude history...

Two-Line Element Set

1 56060U 23043Q 26109.91899035 -.00000010 00000-0 -56497-4 0 9999
2 56060 87.9206 255.5756 0001898 92.6118 267.5233 13.21823560150554
Epoch: Apr 19, 2026 • Age: 6 hours

Current Status

Altitude 1190.0 km
Velocity 7.27 km/s
Sub-Earth Point 83.02°N, 150.21°E
Launch Date Mar 26, 2023
Age 3 years
Type internet

Technical Details

Classification Payload
Mass 148.00 kg
Dry Mass 140.00 kg
Total Mass 148.00 kg
Length 1.30 m
Diameter 1.00 m
Span 5.00 m
Shape Trapezoid+2 pan
Manufacturer ONEWUS
Bus Type ARROW
Phase Status In Orbit
Owner/State ONEWEBN/UK

Most Searched